{"data":{"norad_id":52464,"epoch":"2026-05-25T04:18:41.836032Z","epoch_age_seconds":70178,"freshness":"FRESH","line1":"1 52464U 22049P   26145.17965088  .00000189  00000+0  29959-4 0  9995","line2":"2 52464  53.2151  75.7447 0001587  84.5347 275.5826 15.08837179223793","mean_motion":15.08837179,"eccentricity":0.0001587,"inclination_deg":53.2151,"raan_deg":75.7447,"arg_perigee_deg":84.5347,"mean_anomaly_deg":275.5826,"bstar":2.9959e-5,"rev_number":22379,"period_min":95.437733112752,"perigee_km":538.65414265983,"apogee_km":540.84988063213,"semimajor_km":6917.889011646,"source":"CELESTRAK","updated_at":"2026-05-25T13:38:17.150515Z"}}